Poteau, OK

10:41 PM CST on November 19, 2017 (GMT -0600)
Kerr

Weather History for KRKR - October, 2013

Change the Weather History Date:

Saturday, October 19, 2013

  Actual Average (KFSM) Record (KFSM)
Temperature  
Mean Temperature 51 °F -  
Max Temperature 60 °F 72 °F 91 °F (2016)
Min Temperature 42 °F 48 °F 29 °F (1989)
Degree Days  
Heating Degree Days 14    
Growing Degree Days 1 (Base 50)    
Moisture  
Dew Point 44 °F    
Average Humidity 83    
Maximum Humidity 100    
Minimum Humidity 45    
Precipitation  
Precipitation 0.01 in - - ()
Sea Level Pressure  
Sea Level Pressure 30.12 in    
Wind  
Wind Speed 2 mph (WNW)    
Max Wind Speed 12 mph    
Max Gust Speed 16 mph    
Visibility 10 miles    
Events Rain    
Averages and records for this station are not official NWS values.
T = Trace of Precipitation, MM = Missing Value Source: NWS Daily Summary

Daily Weather History Graph

Daily Weather History Graph

Search for Another Location

Airport or City:

Trip Planner

Search our weather history database for the weather conditions in past years. The results will help you decide how hot, cold, wet, or windy it might be!

Date:

Astronomy

Oct. 19, 2013 Rise Set
Actual Time 7:28 AM CDT 6:38 PM CDT
Civil Twilight 7:02 AM CDT 7:03 PM CDT
Nautical Twilight 6:32 AM CDT 7:33 PM CDT
Astronomical Twilight 6:03 AM CDT 8:02 PM CDT
Moon 7:09 PM CDT (10/19) 8:04 AM CDT (10/19)
Length of Visible Light 12h 01m
Length of Day
11h 10m
Waxing Gibbous, 99% of the Moon is Illuminated
Oct 19
Waxing Gibbous
Oct 26
Last Quarter
Nov 3
New
Nov 9
First Quarter
Nov 17
Full

Hourly Weather History & Observations

Time (CDT) Temp. Windchill Dew Point Humidity Pressure Visibility Wind Dir Wind Speed Gust Speed Precip Events Conditions
12:15 AM 51.8 °F - 50.0 °F 94% 30.08 in 10.0 mi Calm Calm - N/A Rain Light Rain
12:35 AM 51.8 °F - 50.0 °F 94% 30.08 in 10.0 mi Calm Calm - 0.01 in Rain Light Rain
12:55 AM 51.8 °F - 50.0 °F 94% 30.09 in 10.0 mi WSW 4.6 mph - 0.01 in Rain Light Rain
1:15 AM 51.8 °F - 50.0 °F 94% 30.08 in 10.0 mi Calm Calm - N/A Rain Light Rain
1:35 AM 50.0 °F - 50.0 °F 100% 30.10 in 10.0 mi Calm Calm - N/A Rain Light Rain
1:55 AM 48.2 °F - 46.4 °F 93% 30.11 in 10.0 mi NNW 11.5 mph 16.1 mph N/A   Unknown
2:15 AM 48.2 °F - 46.4 °F 93% 30.11 in 10.0 mi Calm Calm - N/A   Unknown
2:35 AM 46.4 °F - 44.6 °F 93% 30.12 in 10.0 mi Calm Calm - N/A   Unknown
2:55 AM 44.6 °F - 44.6 °F 100% 30.13 in 10.0 mi Calm Calm - N/A   Unknown
3:15 AM 46.4 °F 45.2 °F 44.6 °F 93% 30.12 in 10.0 mi North 3.5 mph - N/A   Unknown
3:35 AM 44.6 °F 42.2 °F 44.6 °F 100% 30.13 in 10.0 mi North 4.6 mph - N/A   Unknown
3:55 AM 44.6 °F 39.2 °F 44.6 °F 100% 30.13 in 10.0 mi NNW 10.4 mph - N/A   Unknown
4:15 AM 44.6 °F 43.1 °F 44.6 °F 100% 30.13 in 10.0 mi NW 3.5 mph - N/A   Unknown
4:35 AM 44.6 °F - 42.8 °F 93% 30.13 in 10.0 mi Calm Calm - N/A   Unknown
4:55 AM 44.6 °F 41.4 °F 42.8 °F 93% 30.13 in 10.0 mi NNW 5.8 mph - N/A   Unknown
5:15 AM 44.6 °F 42.2 °F 42.8 °F 93% 30.13 in 10.0 mi NNW 4.6 mph - N/A   Unknown
5:35 AM 44.6 °F - 42.8 °F 93% 30.13 in 10.0 mi Calm Calm - N/A   Unknown
5:55 AM 44.6 °F 40.2 °F 42.8 °F 93% 30.14 in 10.0 mi NW 8.1 mph - N/A   Unknown
6:15 AM 44.6 °F 40.7 °F 41.0 °F 87% 30.15 in 10.0 mi NNW 6.9 mph - N/A   Unknown
6:35 AM 44.6 °F - 42.8 °F 93% 30.15 in 10.0 mi Calm Calm - N/A   Unknown
6:55 AM 42.8 °F 41.1 °F 41.0 °F 93% 30.16 in 10.0 mi West 3.5 mph - N/A   Unknown
7:15 AM 42.8 °F 39.3 °F 41.0 °F 93% 30.16 in 10.0 mi WSW 5.8 mph - N/A   Unknown
7:35 AM 42.8 °F 41.1 °F 41.0 °F 93% 30.17 in 10.0 mi WSW 3.5 mph - N/A   Unknown
7:55 AM 42.8 °F - 41.0 °F 93% 30.17 in 10.0 mi Calm Calm - N/A   Unknown
8:15 AM 42.8 °F 40.1 °F 41.0 °F 93% 30.17 in 10.0 mi WSW 4.6 mph - N/A   Unknown
8:35 AM 42.8 °F - 41.0 °F 93% 30.18 in 10.0 mi Calm Calm - N/A   Unknown
8:55 AM 42.8 °F - 41.0 °F 93% 30.19 in 10.0 mi Calm Calm - N/A   Unknown
9:15 AM 44.6 °F - 41.0 °F 87% 30.20 in 10.0 mi Calm Calm - N/A   Unknown
9:35 AM 44.6 °F - 41.0 °F 87% 30.20 in 10.0 mi Calm Calm - N/A   Unknown
9:55 AM 44.6 °F - 39.2 °F 81% 30.20 in 10.0 mi Calm Calm - N/A   Unknown
10:15 AM 48.2 °F - 42.8 °F 82% 30.20 in 10.0 mi Calm Calm - N/A   Unknown
10:35 AM 48.2 °F - 42.8 °F 82% 30.20 in 10.0 mi Calm Calm - N/A   Unknown
10:55 AM 50.0 °F - 42.8 °F 76% 30.20 in 10.0 mi Calm Calm - N/A   Unknown
11:15 AM 51.8 °F - 42.8 °F 71% 30.20 in 10.0 mi Calm Calm - N/A   Unknown
11:35 AM 51.8 °F - 42.8 °F 71% 30.19 in 10.0 mi WSW 4.6 mph - N/A   Unknown
11:55 AM 51.8 °F - 42.8 °F 71% 30.19 in 10.0 mi Calm Calm - N/A   Unknown
1:55 PM 59.0 °F - 41.0 °F 51% 30.14 in 10.0 mi Calm Calm - N/A   Unknown
2:15 PM 59.0 °F - 42.8 °F 55% 30.13 in 10.0 mi WSW 3.5 mph - N/A   Unknown
2:35 PM 59.0 °F - 41.0 °F 51% 30.13 in 10.0 mi Calm Calm - N/A   Unknown
2:55 PM 59.0 °F - 41.0 °F 51% 30.12 in 10.0 mi Calm Calm - N/A   Unknown
3:15 PM 60.8 °F - 42.8 °F 52% 30.11 in 10.0 mi Calm Calm - N/A   Unknown
3:35 PM 60.8 °F - 41.0 °F 48% 30.11 in 10.0 mi ENE 3.5 mph - N/A   Unknown
3:55 PM 60.8 °F - 39.2 °F 45% 30.10 in 10.0 mi Calm Calm - N/A   Unknown
4:15 PM 60.8 °F - 41.0 °F 48% 30.10 in 10.0 mi Calm Calm - N/A   Unknown
4:35 PM 60.8 °F - 41.0 °F 48% 30.09 in 10.0 mi Calm Calm - N/A   Unknown
4:55 PM 60.8 °F - 41.0 °F 48% 30.09 in 10.0 mi Calm Calm - N/A   Unknown
5:15 PM 60.8 °F - 41.0 °F 48% 30.08 in 5.0 mi Calm Calm - N/A   Haze
5:35 PM 60.8 °F - 41.0 °F 48% 30.08 in 7.0 mi Calm Calm - N/A   Unknown
5:55 PM 60.8 °F - 41.0 °F 48% 30.08 in 10.0 mi Calm Calm - N/A   Unknown
6:15 PM 59.0 °F - 44.6 °F 59% 30.08 in 10.0 mi Calm Calm - N/A   Unknown
6:35 PM 59.0 °F - 46.4 °F 63% 30.08 in 10.0 mi Calm Calm - N/A   Unknown
6:55 PM 53.6 °F - 48.2 °F 82% 30.08 in 10.0 mi Calm Calm - N/A   Unknown
7:15 PM 51.8 °F - 46.4 °F 82% 30.08 in 10.0 mi Calm Calm - N/A   Unknown
7:35 PM 51.8 °F - 50.0 °F 94% 30.08 in 10.0 mi Calm Calm - N/A   Unknown
7:55 PM 50.0 °F - 48.2 °F 94% 30.08 in 10.0 mi Calm Calm - N/A   Unknown
8:15 PM 50.0 °F - 48.2 °F 94% 30.08 in 10.0 mi Calm Calm - N/A   Unknown
8:35 PM 48.2 °F - 46.4 °F 93% 30.08 in 10.0 mi Calm Calm - N/A   Unknown
8:55 PM 48.2 °F - 46.4 °F 93% 30.08 in 10.0 mi Calm Calm - N/A   Unknown
9:15 PM 44.6 °F - 44.6 °F 100% 30.08 in 10.0 mi Calm Calm - N/A   Unknown
9:35 PM 44.6 °F - 44.6 °F 100% 30.08 in 10.0 mi Calm Calm - N/A   Unknown
9:55 PM 44.6 °F - 44.6 °F 100% 30.08 in 10.0 mi Calm Calm - N/A   Unknown
10:15 PM 44.6 °F - 44.6 °F 100% 30.08 in 10.0 mi Calm Calm - N/A   Unknown
10:35 PM 42.8 °F - 42.8 °F 100% 30.08 in 10.0 mi Calm Calm - N/A   Unknown
10:55 PM 44.6 °F - 44.6 °F 100% 30.09 in 10.0 mi Calm Calm - N/A   Unknown
11:15 PM 42.8 °F - 42.8 °F 100% 30.08 in 10.0 mi Calm Calm - N/A   Unknown
11:35 PM 44.6 °F - 44.6 °F 100% 30.08 in 10.0 mi Calm Calm - N/A   Unknown
11:55 PM 44.6 °F - 44.6 °F 100% 30.07 in 10.0 mi Calm Calm - N/A   Unknown